Terug naar catalogus

COSMOS 252 DEB

ActiefLEO
NORAD 3555·DEBRIS·🇷🇺 Russia

Gelanceerd Nov 1, 1968 vanaf Baikonur Cosmodrome

Loading…

Volgende Passages (komende 24 uur)

TLE

VersSource: Space-Track

Epoch: Sep 14, 2026, 10:05 UTC

1 03555U 68097H   26257.42044056  .00000634  00000-0  28117-3 0  9990
2 03555  62.3229  45.8775 0892800 193.2190 164.3951 13.08550482748488

Volg COSMOS 252 DEB in realtime met AllMySat

Download on the App Store